Location: Les Thiberg�res
(47.8554°N, 1.0978°W)
Time: 07:55:16
(UTC+00:00)

IDEFIX/ARIANE 42P - Pass Details

Date: 17 February 2020
Orbit: 784 x 804 km, 98.3° (Epoch: 30 March)

Event Time Altitude Azimuth Distance (km) Brightness Sun altitude
Rises 03:45:42 0° 13° (NNE) 3,320 6.2 -34.2°
Reaches altitude 10° 03:48:02 10° 14° (NNE) 2,383 5.4 -33.8°
Enters shadow 03:50:25 28° 14° (NNE) 1,480 4.2 -33.5°
